User: anonymous
Location: Unspecified
(0.0000°N, 0.0000°E)
Time: 13:59:28
(UTC+02:00)
Language:

GP-B - Orbit

View from above orbital plane
View from above orbital plane
View from above satellite
View from above satellite

Ground track
Ground track

The orbit data is extracted from the following two-line orbital elements,

1 28230U 04014A   14238.14313594  .00000379  00000-0  50782-4 0  1371
2 28230 089.8891 139.0517 0002464 123.2188 236.9270 14.77598374557525
Epoch (UTC): 26 August 2014 03:26:06
Eccentricity: 0.0002464
inclination: 89.8891°
perigee height: 635 km
apogee height: 638 km
right ascension of ascending node: 139.0517°
argument of perigee: 123.2188°
revolutions per day: 14.77598374
mean anomaly at epoch: 236.9270°
orbit number at epoch: 55752

The dashed part of the orbit path shows where the satellite is in the earth's shadow,  

DLR